{"data":{"norad_id":62291,"intl_designator":"2024-238B","name":"GJZ 02","alt_names":[],"object_type":"PAYLOAD","status":"ACTIVE","operator":null,"country":"PRC","launch_date":"2024-12-12","launch_site_code":"JSC","launch_vehicle":null,"mission":null,"orbit_class":"UNKNOWN","rcs_meters":null,"size_class":null,"mass_kg":null,"dimensions":null,"purposes":[],"wikipedia_slug":null,"has_3d_model":false,"image_url":null,"decayed_at":null,"tle_current":{"epoch":"2026-05-25T01:54:23.190912Z","epoch_age_seconds":64712,"freshness":"FRESH","line1":"1 62291U 24238B   26145.07943508 -.00000042  00000+0  79631-4 0  9999","line2":"2 62291  59.9187 320.7093 0007354  92.1351 268.0499 13.75201628 73109","mean_motion":13.75201628,"eccentricity":0.0007354,"inclination_deg":59.9187,"raan_deg":320.7093,"arg_perigee_deg":92.1351,"mean_anomaly_deg":268.0499,"bstar":7.9631e-5,"rev_number":7310,"period_min":104.71191792394,"perigee_km":975.5435268442,"apogee_km":986.36727995112,"semimajor_km":7359.0924033977,"source":"CELESTRAK","updated_at":"2026-05-25T13:38:02.903985Z"}}}